Zurück zum Katalog

CZ-4 DEB

AktivSSO
NORAD 26336·DEBRIS·🇨🇳 China

Gestartet Oct 14, 1999 von Taiyuan Satellite Launch Center

Loading…

Nächste Überflüge (nächste 24 Stunden)

TLE

AktuellSource: Space-Track

Epoche: Sep 14, 2026, 10:12 UTC

1 26336U 99057HV  26257.42565499  .00003463  00000-0  49537-3 0  9993
2 26336  98.3371 324.2139 0046560 260.4427  99.1518 14.76602747398921

Verfolge CZ-4 DEB in Echtzeit mit AllMySat

Download on the App Store